Retour au catalogue

STARLINK-3707

ActifCommunicationsVLEO
NORAD 52133·PAYLOAD·🇺🇸 United States

Lancé Mar 19, 2022 depuis Cape Canaveral Space Force Station

Loading…

Prochains Passages (prochaines 24 heures)

TLE

FraisSource: CelesTrak SupGP

Époque: Sep 14, 2026, 13:41 UTC

1 52133C 22029AX  26257.57062500  .00049668  00000+0  14679-2 0  2574
2 52133  53.1576 295.1379 0001177  80.2114 119.7470 15.34356245    19

Suivez STARLINK-3707 en temps réel avec AllMySat

Download on the App Store